カタログに戻る

STARLINK-5823

運用中通信VLEO
NORAD 55786·PAYLOAD·🇺🇸 United States

打ち上げ Mar 3, 2023 から Vandenberg Space Force Base

Loading…

次のパス (今後24時間)

TLE

最新Source: CelesTrak SupGP

元期: Sep 15, 2026, 01:34 UTC

1 55786C 23028AX  26258.06576389  .00655420  00000+0  38965-1 0  2584
2 55786  69.9996  86.7110 0003414 273.3030 300.6304 15.10845432    14

AllMySatでSTARLINK-5823をリアルタイム追跡

Download on the App Store